Time,TemperatureF,DewpointF,PressureIn,WindDirection,WindDirectionDegrees,WindSpeedMPH,WindSpeedGustMPH,Humidity,HourlyPrecipIn,Conditions,Clouds,dailyrainin,SoftwareType,DateUTC
2013-07-20 00:06:00,66.5,61.0,29.86,North,349,0.0,0.0,81,0.00,,,0.00,weatherlink.com 1.10,2013-07-20 05:06:00,
2013-07-20 00:21:00,66.2,60.0,29.86,North,349,0.0,0.0,81,0.00,,,0.00,weatherlink.com 1.10,2013-07-20 05:21:00,
2013-07-20 00:37:00,66.2,60.0,29.87,North,349,0.0,1.0,81,0.00,,,0.00,weatherlink.com 1.10,2013-07-20 05:37:00,
2013-07-20 00:52:00,66.5,61.0,29.87,North,349,0.0,0.0,81,0.00,,,0.00,weatherlink.com 1.10,2013-07-20 05:52:00,
2013-07-20 01:07:00,66.4,60.0,29.87,North,349,0.0,0.0,80,0.00,,,0.00,weatherlink.com 1.10,2013-07-20 06:07:00,
2013-07-20 01:22:00,65.7,60.0,29.87,North,349,0.0,0.0,82,0.00,,,0.00,weatherlink.com 1.10,2013-07-20 06:22:00,
2013-07-20 01:37:00,64.9,60.0,29.87,North,349,0.0,0.0,84,0.00,,,0.00,weatherlink.com 1.10,2013-07-20 06:37:00,
2013-07-20 01:52:00,65.4,60.0,29.87,North,349,0.0,0.0,83,0.00,,,0.00,weatherlink.com 1.10,2013-07-20 06:52:00,
2013-07-20 02:07:00,64.8,60.0,29.87,North,349,0.0,0.0,84,0.00,,,0.00,weatherlink.com 1.10,2013-07-20 07:07:00,
2013-07-20 02:22:00,64.1,60.0,29.86,North,349,0.0,0.0,85,0.00,,,0.00,weatherlink.com 1.10,2013-07-20 07:22:00,
2013-07-20 02:37:00,63.6,59.0,29.86,North,349,0.0,1.0,86,0.00,,,0.00,weatherlink.com 1.10,2013-07-20 07:37:00,
2013-07-20 02:52:00,62.6,58.0,29.86,SSW,205,0.0,0.0,86,0.00,,,0.00,weatherlink.com 1.10,2013-07-20 07:52:00,
2013-07-20 03:07:00,61.7,58.0,29.85,SSW,205,0.0,0.0,88,0.00,,,0.00,weatherlink.com 1.10,2013-07-20 08:07:00,
2013-07-20 03:22:00,61.6,58.0,29.85,SSW,205,0.0,0.0,89,0.00,,,0.00,weatherlink.com 1.10,2013-07-20 08:22:00,
2013-07-20 03:37:00,61.2,58.0,29.85,SSW,205,0.0,0.0,90,0.00,,,0.00,weatherlink.com 1.10,2013-07-20 08:37:00,
2013-07-20 03:52:00,61.1,59.0,29.85,SSW,205,0.0,0.0,91,0.00,,,0.00,weatherlink.com 1.10,2013-07-20 08:52:00,
2013-07-20 04:07:00,61.1,58.0,29.85,SSW,205,0.0,0.0,90,0.00,,,0.00,weatherlink.com 1.10,2013-07-20 09:07:00,
2013-07-20 04:22:00,60.9,58.0,29.84,SSW,202,0.0,0.0,91,0.00,,,0.00,weatherlink.com 1.10,2013-07-20 09:22:00,
2013-07-20 04:37:00,61.0,58.0,29.84,SSW,202,0.0,0.0,91,0.00,,,0.00,weatherlink.com 1.10,2013-07-20 09:37:00,
2013-07-20 04:52:00,61.3,59.0,29.84,SSW,202,0.0,0.0,91,0.00,,,0.00,weatherlink.com 1.10,2013-07-20 09:52:00,
2013-07-20 05:07:00,61.5,59.0,29.84,SSW,202,0.0,0.0,90,0.00,,,0.00,weatherlink.com 1.10,2013-07-20 10:07:00,
2013-07-20 05:22:00,61.2,58.0,29.84,SSW,202,0.0,0.0,90,0.00,,,0.00,weatherlink.com 1.10,2013-07-20 10:22:00,
2013-07-20 05:37:00,60.9,58.0,29.85,SSW,202,0.0,0.0,91,0.00,,,0.00,weatherlink.com 1.10,2013-07-20 10:37:00,
2013-07-20 05:52:00,60.9,58.0,29.86,SSW,202,0.0,0.0,91,0.00,,,0.00,weatherlink.com 1.10,2013-07-20 10:52:00,
2013-07-20 06:07:00,60.3,58.0,29.86,SW,230,0.0,1.0,91,0.00,,,0.00,weatherlink.com 1.10,2013-07-20 11:07:00,
2013-07-20 06:22:00,60.0,57.0,29.87,SW,231,0.0,0.0,91,0.00,,,0.00,weatherlink.com 1.10,2013-07-20 11:22:00,
2013-07-20 06:37:00,60.3,57.0,29.87,SW,231,0.0,0.0,90,0.00,,,0.00,weatherlink.com 1.10,2013-07-20 11:37:00,
2013-07-20 06:52:00,61.1,58.0,29.86,SW,231,0.0,0.0,90,0.00,,,0.00,weatherlink.com 1.10,2013-07-20 11:52:00,
2013-07-20 07:07:00,62.0,59.0,29.87,SW,231,0.0,0.0,88,0.00,,,0.00,weatherlink.com 1.10,2013-07-20 12:07:00,
2013-07-20 07:22:00,63.4,59.0,29.87,SW,231,0.0,0.0,85,0.00,,,0.00,weatherlink.com 1.10,2013-07-20 12:22:00,
2013-07-20 07:37:00,64.4,60.0,29.88,SW,231,0.0,0.0,84,0.00,,,0.00,weatherlink.com 1.10,2013-07-20 12:37:00,
2013-07-20 07:52:00,66.0,60.0,29.88,SW,231,0.0,0.0,81,0.00,,,0.00,weatherlink.com 1.10,2013-07-20 12:52:00,
2013-07-20 08:07:00,67.6,61.0,29.90,West,273,2.0,2.0,78,0.00,,,0.00,weatherlink.com 1.10,2013-07-20 13:07:00,
2013-07-20 08:22:00,68.3,62.0,29.91,WSW,249,0.0,2.0,81,0.00,,,0.00,weatherlink.com 1.10,2013-07-20 13:22:00,
2013-07-20 08:37:00,70.3,64.0,29.91,West,259,0.0,2.0,80,0.00,,,0.00,weatherlink.com 1.10,2013-07-20 13:37:00,
2013-07-20 08:52:00,72.2,63.0,29.91,West,270,1.0,4.0,73,0.00,,,0.00,weatherlink.com 1.10,2013-07-20 13:52:00,
2013-07-20 09:08:00,73.4,63.0,29.91,WNW,302,0.0,5.0,70,0.00,,,0.00,weatherlink.com 1.10,2013-07-20 14:08:00,
2013-07-20 09:23:00,74.4,63.0,29.91,ESE,105,0.0,4.0,67,0.00,,,0.00,weatherlink.com 1.10,2013-07-20 14:23:00,
2013-07-20 09:38:00,75.9,63.0,29.91,NNE,27,3.0,6.0,64,0.00,,,0.00,weatherlink.com 1.10,2013-07-20 14:38:00,
2013-07-20 09:53:00,76.9,63.0,29.91,North,351,5.0,8.0,63,0.00,,,0.00,weatherlink.com 1.10,2013-07-20 14:53:00,
2013-07-20 10:08:00,77.9,63.0,29.89,WNW,297,3.0,9.0,60,0.00,,,0.00,weatherlink.com 1.10,2013-07-20 15:08:00,
2013-07-20 10:23:00,78.8,63.0,29.88,NW,324,0.0,5.0,58,0.00,,,0.00,weatherlink.com 1.10,2013-07-20 15:23:00,
2013-07-20 10:38:00,79.6,62.0,29.88,North,352,0.0,8.0,56,0.00,,,0.00,weatherlink.com 1.10,2013-07-20 15:38:00,
2013-07-20 10:53:00,79.9,63.0,29.90,West,276,0.0,5.0,56,0.00,,,0.00,weatherlink.com 1.10,2013-07-20 15:53:00,
2013-07-20 11:08:00,79.7,64.0,29.90,WNW,284,1.0,3.0,59,0.00,,,0.00,weatherlink.com 1.10,2013-07-20 16:08:00,
2013-07-20 11:23:00,81.0,64.0,29.89,West,266,0.0,4.0,56,0.00,,,0.00,weatherlink.com 1.10,2013-07-20 16:23:00,
2013-07-20 11:38:00,81.4,63.0,29.89,SSW,210,1.0,4.0,53,0.00,,,0.00,weatherlink.com 1.10,2013-07-20 16:38:00,
2013-07-20 11:53:00,81.7,60.0,29.89,NNE,33,1.0,3.0,48,0.00,,,0.00,weatherlink.com 1.10,2013-07-20 16:53:00,
2013-07-20 12:08:00,80.7,60.0,29.89,SW,236,1.0,3.0,50,0.00,,,0.00,weatherlink.com 1.10,2013-07-20 17:08:00,
2013-07-20 12:23:00,81.1,61.0,29.89,WNW,296,0.0,3.0,51,0.00,,,0.00,weatherlink.com 1.10,2013-07-20 17:23:00,
2013-07-20 12:38:00,80.6,62.0,29.89,West,261,0.0,4.0,53,0.00,,,0.00,weatherlink.com 1.10,2013-07-20 17:38:00,
2013-07-20 12:53:00,82.5,62.0,29.89,WSW,255,2.0,6.0,50,0.00,,,0.00,weatherlink.com 1.10,2013-07-20 17:53:00,
2013-07-20 13:08:00,83.3,63.0,29.89,WNW,289,2.0,4.0,50,0.00,,,0.00,weatherlink.com 1.10,2013-07-20 18:08:00,
2013-07-20 13:23:00,84.1,62.0,29.88,ENE,69,2.0,4.0,47,0.00,,,0.00,weatherlink.com 1.10,2013-07-20 18:23:00,
2013-07-20 13:38:00,83.8,61.0,29.88,NW,317,2.0,4.0,47,0.00,,,0.00,weatherlink.com 1.10,2013-07-20 18:38:00,
2013-07-20 14:08:00,83.9,61.0,29.87,North,6,1.0,5.0,46,0.00,,,0.00,weatherlink.com 1.10,2013-07-20 19:08:00,
2013-07-20 14:23:00,84.4,61.0,29.86,WNW,296,0.0,2.0,45,0.00,,,0.00,weatherlink.com 1.10,2013-07-20 19:23:00,
2013-07-20 14:38:00,85.2,60.0,29.87,WNW,297,1.0,4.0,43,0.00,,,0.00,weatherlink.com 1.10,2013-07-20 19:38:00,
2013-07-20 14:53:00,85.1,60.0,29.87,WNW,298,1.0,4.0,43,0.00,,,0.00,weatherlink.com 1.10,2013-07-20 19:53:00,
2013-07-20 15:08:00,85.1,61.0,29.87,NW,323,0.0,3.0,44,0.00,,,0.00,weatherlink.com 1.10,2013-07-20 20:08:00,
2013-07-20 15:23:00,85.3,61.0,29.87,ESE,108,1.0,4.0,44,0.00,,,0.00,weatherlink.com 1.10,2013-07-20 20:23:00,
2013-07-20 15:38:00,85.6,62.0,29.87,WNW,302,3.0,5.0,46,0.00,,,0.00,weatherlink.com 1.10,2013-07-20 20:38:00,
2013-07-20 16:08:00,84.9,61.0,29.86,SSW,197,1.0,4.0,45,0.00,,,0.00,weatherlink.com 1.10,2013-07-20 21:08:00,
2013-07-20 16:23:00,84.8,61.0,29.86,SW,222,2.0,5.0,44,0.00,,,0.00,weatherlink.com 1.10,2013-07-20 21:23:00,
2013-07-20 16:38:00,84.0,61.0,29.86,WSW,244,2.0,3.0,46,0.00,,,0.00,weatherlink.com 1.10,2013-07-20 21:38:00,
2013-07-20 16:53:00,84.2,61.0,29.85,SW,216,1.0,5.0,46,0.00,,,0.00,weatherlink.com 1.10,2013-07-20 21:53:00,
2013-07-20 17:08:00,84.3,62.0,29.84,South,182,0.0,3.0,48,0.00,,,0.00,weatherlink.com 1.10,2013-07-20 22:08:00,
2013-07-20 17:38:00,84.5,61.0,29.84,West,262,1.0,4.0,45,0.00,,,0.00,weatherlink.com 1.10,2013-07-20 22:38:00,
2013-07-20 17:53:00,84.6,63.0,29.84,West,261,1.0,4.0,48,0.00,,,0.00,weatherlink.com 1.10,2013-07-20 22:53:00,
2013-07-20 18:23:00,84.0,62.0,29.83,SW,236,0.0,1.0,48,0.00,,,0.00,weatherlink.com 1.10,2013-07-20 23:23:00,
2013-07-20 18:54:00,85.3,62.0,29.83,North,358,0.0,0.0,45,0.00,,,0.00,weatherlink.com 1.10,2013-07-20 23:54:00,
2013-07-20 19:09:00,84.3,61.0,29.83,North,8,0.0,0.0,45,0.00,,,0.00,weatherlink.com 1.10,2013-07-21 00:09:00,
2013-07-20 19:39:00,81.6,62.0,29.83,NW,313,0.0,0.0,52,0.00,,,0.00,weatherlink.com 1.10,2013-07-21 00:39:00,
2013-07-20 19:54:00,82.1,62.0,29.84,WSW,257,0.0,0.0,51,0.00,,,0.00,weatherlink.com 1.10,2013-07-21 00:54:00,
2013-07-20 20:09:00,80.6,62.0,29.84,West,271,0.0,0.0,54,0.00,,,0.00,weatherlink.com 1.10,2013-07-21 01:09:00,
2013-07-20 20:24:00,79.4,62.0,29.84,NNW,346,0.0,0.0,56,0.00,,,0.00,weatherlink.com 1.10,2013-07-21 01:24:00,
2013-07-20 20:39:00,78.1,62.0,29.84,NNW,346,0.0,0.0,57,0.00,,,0.00,weatherlink.com 1.10,2013-07-21 01:39:00,
2013-07-20 20:54:00,76.9,62.0,29.84,NNW,346,0.0,0.0,60,0.00,,,0.00,weatherlink.com 1.10,2013-07-21 01:54:00,
2013-07-20 21:09:00,76.1,62.0,29.83,NW,323,0.0,0.0,61,0.00,,,0.00,weatherlink.com 1.10,2013-07-21 02:09:00,
2013-07-20 21:24:00,75.1,62.0,29.84,NW,323,0.0,0.0,65,0.00,,,0.00,weatherlink.com 1.10,2013-07-21 02:24:00,
2013-07-20 21:39:00,74.4,62.0,29.84,NW,324,0.0,0.0,65,0.00,,,0.00,weatherlink.com 1.10,2013-07-21 02:39:00,
2013-07-20 21:54:00,74.0,62.0,29.86,NW,324,0.0,0.0,66,0.00,,,0.00,weatherlink.com 1.10,2013-07-21 02:54:00,
2013-07-20 22:09:00,74.0,62.0,29.87,NW,324,0.0,0.0,67,0.00,,,0.00,weatherlink.com 1.10,2013-07-21 03:09:00,
2013-07-20 22:24:00,73.9,62.0,29.87,NW,324,0.0,0.0,67,0.00,,,0.00,weatherlink.com 1.10,2013-07-21 03:24:00,
2013-07-20 22:39:00,73.6,62.0,29.87,NW,324,0.0,0.0,68,0.00,,,0.00,weatherlink.com 1.10,2013-07-21 03:39:00,
2013-07-20 23:09:00,73.0,63.0,29.87,East,93,0.0,2.0,72,0.00,,,0.00,weatherlink.com 1.10,2013-07-21 04:09:00,
2013-07-20 23:24:00,72.6,63.0,29.87,East,94,0.0,0.0,73,0.00,,,0.00,weatherlink.com 1.10,2013-07-21 04:24:00,
2013-07-20 23:39:00,72.2,64.0,29.86,ESE,107,0.0,0.0,74,0.00,,,0.00,weatherlink.com 1.10,2013-07-21 04:39:00,
2013-07-20 23:54:00,72.1,64.0,29.87,ENE,78,0.0,2.0,75,0.00,,,0.00,weatherlink.com 1.10,2013-07-21 04:54:00,